This demonstration page uses our WeatherBlox Daily Observations layout. Learn more.

Left ArrowRight Arrow

39.92423, -83.80882

Hourly Observations for November 30, 2022

Temp ( °F °C ) Dew Point ( °F °C ) Humidity (%) Winds ( mph kmh ) Pressure ( in mb ) Visibility ( mi km ) Precip ( " mm )
12:47 am 00:47 Cloudy 54 12 N/A N/A S 14 22 29.69 1006 10 16 0.00 0.00
12:56 am 00:56 Cloudy 53 11.7 N/A N/A S 13 20 29.68 1005 10 16 0.00 0.00
1:17 am 01:17 Cloudy 54 12 N/A N/A S 12 19 29.66 1005 10 16 0.00 0.00
1:56 am 01:56 Cloudy N/A N/A N/A S 14 22 29.70 1006 10 16 0.00 0.00
2:56 am 02:56 Cloudy 55 12.8 N/A N/A S 12 19 29.64 1004 10 16 0.00 0.00
3:56 am 03:56 Cloudy with Light Rain 55 12.8 N/A N/A SSW 14 22 29.63 1003 9 14 0.02 0.51
4:56 am 04:56 Cloudy with Light Rain N/A N/A N/A SW 18 30 29.66 1005 10 16 0.05 1.27
5:26 am 05:26 Cloudy with Light Rain 54 12 N/A N/A WNW 18 30 29.62 1003 10 16 0.01 0.13
5:34 am 05:34 Cloudy with Light Rain 48 9 N/A N/A WNW 33 54 29.66 1005 10 16 0.01 0.13
5:56 am 05:56 Cloudy with Haze 41 5 N/A N/A WNW 30 48 29.70 1006 6 10 0.01 0.13
6:41 am 06:41 Cloudy 36 2 N/A N/A W 28 44 29.79 1009 10 16 0.00 0.00
6:56 am 06:56 Cloudy 34 1.1 34 1.1 100 100 W 23 37 29.79 1009 10 16 0.00 0.00
7:56 am 07:56 Cloudy 33 0.6 33 0.6 100 100 WNW 21 33 29.85 1011 10 16 0.00 0.00
8:18 am 08:18 Cloudy 34 1 28 -2 80 80 W 23 37 29.91 1013 10 16 0.00 0.00
8:56 am 08:56 Mostly Cloudy 33 0.6 26 -3.3 75 75 W 18 30 29.90 1013 10 16 0.00 0.00
9:27 am 09:27 Partly Cloudy 34 1 25 -4 69 69 W 22 35 29.95 1014 10 16 0.00 0.00
9:56 am 09:56 Mostly Sunny 33 0.6 24 -4.4 69 69 W 25 41 29.94 1014 10 16 0.00 0.00
10:56 am 10:56 Sunny 32 0 22 -5.6 66 66 W 24 39 30.00 1016 10 16 0.00 0.00
11:56 am 11:56 Sunny 34 1.1 21 -6.1 59 59 W 25 41 30.02 1017 10 16 0.00 0.00
12:56 pm 12:56 Mostly Sunny 36 2.2 21 -6.1 54 54 W 24 39 30.04 1017 10 16 0.00 0.00
1:56 pm 13:56 Mostly Sunny 36 2.2 21 -6.1 54 54 WSW 23 37 30.09 1019 10 16 0.00 0.00
2:56 pm 14:56 Mostly Cloudy 34 1.1 20 -6.7 56 56 W 22 35 30.09 1019 10 16 0.00 0.00
3:56 pm 15:56 Sunny 34 1.1 20 -6.7 56 56 W 21 33 30.11 1020 10 16 0.00 0.00
4:56 pm 16:56 Mostly Sunny 32 0 20 -6.7 61 61 W 20 31 30.18 1022 10 16 0.00 0.00
5:56 pm 17:56 Clear 31 -0.6 20 -6.7 63 63 W 23 37 30.18 1022 10 16 0.00 0.00
6:56 pm 18:56 Clear 30 -1.1 20 -6.7 66 66 W 18 30 30.21 1023 10 16 0.00 0.00
7:56 pm 19:56 Cloudy 29 -1.7 20 -6.7 69 69 W 21 33 30.24 1024 10 16 0.00 0.00
8:56 pm 20:56 Cloudy 29 -1.7 18 -7.8 63 63 W 24 39 30.27 1025 10 16 0.00 0.00
9:56 pm 21:56 Mostly Cloudy 27 -2.8 19 -7.2 72 72 W 20 31 30.29 1026 10 16 0.00 0.00
10:56 pm 22:56 Mostly Cloudy 26 -3.3 18 -7.8 71 71 W 15 24 30.31 1026 10 16 0.00 0.00
11:56 pm 23:56 Clear 25 -3.9 17 -8.3 71 71 W 15 24 30.33 1027 10 16 0.00 0.00

Powered by AerisWeather